Retour au catalogue

CZ-4C DEB

ActifLEO
NORAD 54702·DEBRIS·🇨🇳 China

Lancé Dec 12, 2022 depuis Jiuquan Satellite Launch Center

Loading…

Prochains Passages (prochaines 24 heures)

TLE

FraisSource: Space-Track

Époque: Sep 14, 2026, 11:51 UTC

1 54702U 22169D   26257.49391706  .00000191  00000-0  12100-3 0  9997
2 54702  59.9964 292.0835 0007050 349.4676  10.6212 14.32445553196387

Suivez CZ-4C DEB en temps réel avec AllMySat

Download on the App Store